Location: Ahstedt
(52.2048°N, 10.1060°E)
Time: 22:53:55
(UTC+00:00)

SOZ - Pass Details

Date: 18 January 2026
Orbit: 330 x 16065 km, 51.9° (Epoch: 5 February)

Event Time Altitude Azimuth Distance (km) Brightness Sun altitude
Exits shadow 05:01:04 71° 101° (E) 413 4.3 -20.4°
Drops below altitude 10° 05:04:22 10° 94° (E) 1,974 8.9 -19.9°
Sets 05:07:52 0° 94° (E) 3,758 10.7 -19.4°
